Simultaneous Nadir Overpasses (SNOs) Predictions

Prediction of SNOs between METOP-B and NOAA-19 Satellite Orbit:

Table of predicted SNOs for the next 14.0 days since TLE Epoch: 7/13/2018
Index Date (METOP-B) Time (METOP-B) Lat,Lon (METOP-B) SZA (METOP-B ) Date (NOAA-19) Time (NOAA-19) Lat,Lon (NOAA-19) SZA (NOAA-19 ) Distance(km) Time Diff (sec)
1 07/20/2018 04:06:59 78.48, 128.47 57.89 07/20/2018 04:05:56 78.51, 128.52 57.91 3.32 63
2 07/20/2018 04:57:40 -78.48, -64.20 122.11 07/20/2018 04:56:53 -78.49, -64.09 122.10 2.68 47
3 07/20/2018 05:48:20 78.50, 103.24 57.93 07/20/2018 05:47:56 78.47, 103.28 57.89 3.71 24
4 07/20/2018 06:39:02 -78.46, -89.65 122.12 07/20/2018 06:38:54 -78.48, -89.56 122.09 3.11 8
5 07/20/2018 07:29:42 78.48, 77.79 57.92 07/20/2018 07:29:57 78.46, 77.81 57.90 2.06 15
6 07/20/2018 08:20:23 -78.48,-114.87 122.08 07/20/2018 08:20:55 -78.48,-115.04 122.08 3.68 32
7 07/20/2018 09:11:03 78.46, 52.35 57.91 07/20/2018 09:11:57 78.46, 52.34 57.91 0.48 54
8 07/20/2018 10:01:44 -78.46,-140.32 122.09 07/20/2018 10:02:54 -78.44,-140.28 122.10 2.77 70




NCC Satellite Simultaneous Nadir Overpasses (SNOs) Prediction Service
